Ord, NE

12:08 AM CDT on May 28, 2017 (GMT -0500)
Sharp

Weather History for KODX - July, 2014

Change the Weather History Date:

Thursday, July 3, 2014

  Actual Average Record
Temperature  
Mean Temperature 65 °F 73 °F  
Max Temperature 82 °F 86 °F 101 °F (2012)
Min Temperature 47 °F 61 °F 47 °F (2014)
Degree Days  
Heating Degree Days 0 0  
Month to date heating degree days 5 0  
Since 1 June heating degree days 37 37  
Since 1 July heating degree days 5 0  
Cooling Degree Days 0 9  
Month to date cooling degree days 0 25  
Year to date cooling degree days 215 228  
Since 1 June cooling degree days 146 187  
Growing Degree Days 15 (Base 50)    
Moisture  
Dew Point 55 °F    
Average Humidity 71    
Maximum Humidity 96    
Minimum Humidity 46    
Precipitation  
Precipitation 0.00 in 0.10 in 1.73 in (1903)
Month to date precipitation 0.00 0.31  
Year to date precipitation 10.30 13.09  
Sea Level Pressure  
Sea Level Pressure 30.15 in    
Wind  
Wind Speed 8 mph (SSE)    
Max Wind Speed 17 mph    
Max Gust Speed 24 mph    
Visibility 10 miles    
Events      
T = Trace of Precipitation, MM = Missing Value Source: NWS Daily Summary

Daily Weather History Graph

Daily Weather History Graph

Search for Another Location

Airport or City:

Trip Planner

Search our weather history database for the weather conditions in past years. The results will help you decide how hot, cold, wet, or windy it might be!

Date:

Astronomy

Jul. 03, 2014 Rise Set
Actual Time 6:06 AM CDT 9:13 PM CDT
Civil Twilight 5:32 AM CDT 9:47 PM CDT
Nautical Twilight 4:49 AM CDT 10:30 PM CDT
Astronomical Twilight 3:57 AM CDT 11:21 PM CDT
Moon 12:12 PM CDT (7/3) 12:02 AM CDT (7/3)
Length of Visible Light 16h 14m
Length of Day
15h 07m
Waxing Crescent, 33% of the Moon is Illuminated
Jul 3
Waxing Crescent
Jul 5
First Quarter
Jul 12
Full
Jul 18
Last Quarter
Jul 26
New

Hourly Weather History & Observations

Time (CDT) Temp. Heat Index Dew Point Humidity Pressure Visibility Wind Dir Wind Speed Gust Speed Precip Events Conditions
12:53 AM 53.1 °F - 48.0 °F 83% 30.19 in 10.0 mi Calm Calm - N/A   Clear
1:53 AM 53.1 °F - 48.9 °F 86% 30.19 in 10.0 mi Calm Calm - N/A   Clear
2:53 AM 50.0 °F - 46.9 °F 89% 30.19 in 10.0 mi Calm Calm - N/A   Clear
3:53 AM 51.1 °F - 46.9 °F 86% 30.18 in 10.0 mi Calm Calm - N/A   Clear
4:53 AM 48.9 °F - 46.9 °F 93% 30.17 in 10.0 mi Calm Calm - N/A   Clear
5:53 AM 48.9 °F - 46.9 °F 93% 30.18 in 10.0 mi Calm Calm - N/A   Clear
6:53 AM 52.0 °F - 50.0 °F 93% 30.18 in 10.0 mi East 4.6 mph - N/A   Clear
7:53 AM 55.9 °F - 52.0 °F 87% 30.19 in 10.0 mi ESE 4.6 mph - N/A   Clear
8:53 AM 62.6 °F - 51.8 °F 68% 30.19 in 10.0 mi SE 8.1 mph - N/A   Clear
9:53 AM 66.9 °F - 54.0 °F 63% 30.18 in 10.0 mi SSE 9.2 mph - N/A   Clear
10:53 AM 70.0 °F - 55.9 °F 61% 30.17 in 10.0 mi SSE 11.5 mph - N/A   Clear
11:53 AM 73.0 °F - 57.9 °F 59% 30.17 in 10.0 mi South 10.4 mph - N/A   Clear
12:53 PM 75.0 °F - 59.0 °F 57% 30.15 in 10.0 mi South 11.5 mph 18.4 mph N/A   Clear
1:53 PM 77.0 °F - 60.8 °F 57% 30.15 in 10.0 mi SSE 10.4 mph 23.0 mph N/A   Clear
2:53 PM 79.0 °F - 61.0 °F 54% 30.14 in 10.0 mi SSE 11.5 mph 18.4 mph N/A   Partly Cloudy
3:53 PM 81.0 °F 81.7 °F 61.0 °F 50% 30.12 in 10.0 mi SSE 15.0 mph 24.2 mph N/A   Partly Cloudy
4:53 PM 82.0 °F 82.1 °F 59.0 °F 45% 30.12 in 10.0 mi South 11.5 mph 19.6 mph N/A   Partly Cloudy
5:53 PM 80.1 °F 80.7 °F 59.0 °F 48% 30.12 in 10.0 mi South 15.0 mph - N/A   Partly Cloudy
6:53 PM 80.1 °F 80.7 °F 59.0 °F 48% 30.10 in 10.0 mi SSE 11.5 mph - N/A   Clear
7:53 PM 78.1 °F - 59.0 °F 52% 30.10 in 10.0 mi SSE 8.1 mph - N/A   Partly Cloudy
8:53 PM 75.0 °F - 59.0 °F 57% 30.09 in 10.0 mi SSE 10.4 mph - N/A   Mostly Cloudy
9:53 PM 73.0 °F - 59.0 °F 61% 30.10 in 10.0 mi SSE 9.2 mph - N/A   Overcast
10:53 PM 70.0 °F - 60.1 °F 71% 30.13 in 10.0 mi SE 6.9 mph - N/A   Partly Cloudy
11:53 PM 69.1 °F - 59.0 °F 70% 30.14 in 10.0 mi SSE 10.4 mph - N/A   Partly Cloudy